Rechercher aéroport 
image banner adimage banner adimage banner ad
image banner ad

1O3 - Lodi

Situé à Lodi, United States

ICAO - 1O3, IATA -

Données fournies par Airmate  

Information générale

Coordonnées: N38°12'9" W121°16'9"
Élévation : 60 feet MSL.
Variation magnétique : 16° East
Voir autres Aéroports à California

Données opérationnelles

Special qualification required
Heure actuelle UTC:
Heure actuelle locale:
Météo à : KSCK - Stockton Metropolitan ( 34 km )
METAR: KSCK 292355Z 31011KT 10SM CLR 37/12 A2981 RMK AO2 SLP093 T03720117 10378 20294 56012
TAF: KSCK 292350Z 3000/3024 30011KT P6SM FEW200 FM300200 27012G20KT P6SM SCT150 FM300500 30010KT P6SM SKC FM300900 VRB04KT P6SM FEW150 FM302100 29009KT P6SM SKC
Voir NOTAMs / SUP AIP / TFR affectant cet aéroport [VIEW]
Fréquences de communication: [VIEW]

Pistes:

Identifiant RWYQFULongueur (ft)Largeur (ft)SurfaceLDA (ft)
0892°354740ASPH
26272°354740ASPH
12135°197925ASPH
30315°197925ASPH

Coordonnées de l'aéroport

Adresse: Lodi United States

Autres services d'aviation

Écoles de pilotage

Cfi Academy

Cfi Academy
admin@cfiacademy.com+1(916)209-0234

Vue satellite de 1O3